Regional Weather Roundup
Issued by NWS

Home | Current Version | Previous Version | Text Only | Print | Product List | Glossary Off
Versions: 1 2 3 4 5 6 7 8 9 10 11 12 13 14 15 16 17 18 19 20 21 22 23 24 25 26 27 28 29 30 31 32 33 34 35 36 37 38 39 40 41 42 43 44 45 46 47 48 49 50

000
ASUS43 KLOT 270203
RWRIL

ILLINOIS REGIONAL WEATHER ROUNDUP
NATIONAL WEATHER SERVICE CHICAGO/ROMEOVILLE IL
900 PM CDT THU MAY 26 2016

NOTE: "FAIR" INDICATES FEW OR NO CLOUDS BELOW 12,000 FEET WITH NO
SIGNIFICANT WEATHER AND/OR OBSTRUCTIONS TO VISIBILITY.

* THESE STATIONS ARE NOT UNDER NWS QUALITY CONTROL. THEY ALSO MAY NOT
  REPORT WEATHER SUCH AS PRECIPITATION OR FOG.

ILZ001-002-007-009-015-016-024-270300-
NORTHWEST ILLINOIS

CITY           SKY/WX    TMP DP  RH WIND       PRES   REMARKS
MOLINE         CLOUDY    78  63  59 SW7       29.86R HX  80
STERLING*      CLOUDY    75  65  70 CALM      29.87R
$$

ILZ003-004-008-010-011-017-018-270300-
NORTH CENTRAL ILLINOIS

CITY           SKY/WX    TMP DP  RH WIND       PRES   REMARKS
ROCKFORD       CLOUDY    75  64  68 CALM      29.90R
FREEPORT*      CLOUDY    72  61  67 CALM      29.90R
ROCHELLE*      MOCLDY    74  70  87 CALM      29.89R
$$

ILZ005-006-012>014-019>023-270300-
NORTHEAST ILLINOIS

CITY           SKY/WX    TMP DP  RH WIND       PRES   REMARKS
CHICAGO-OHARE  CLOUDY    73  65  75 S5        29.88R
CHICAGO-MIDWAY CLOUDY    81  61  50 CALM      29.88R HX  82
AURORA           N/A     77  68  73 CALM      29.89R
LANSING*       CLOUDY    74  64  69 S8        29.90R
WAUKEGAN       PTCLDY    68  63  84 CALM      29.88R
DUPAGE AIRPORT CLOUDY    73  65  75 CALM      29.88R
WHEELING       CLOUDY    75  65  70 CALM      29.89R
NORTHERLY ISL    N/A     65  59  81 N3          N/A
NORTHERLY ISL    N/A     65  59  81 N3          N/A
$$

LMZ740>746-270300-
SOUTHERN LAKE MICHIGAN

STATION/POSITION SKY/WX   TEMP    WIND        PRES    VSBY  WAVE
                          AIR SEA DIR/SP/G                  HT/PER
                          (F)     (DEG/KT/KT) (MB)    (MI)  (FT/S)
SOUTHERN BUOY              57 50  160/  8/  8 1011.4          0
WILMETTE HARBOR            63 58  120/  4/  6   N/A           1
HARRISON CRIB              72     140/  4/  5   N/A
BURNHAM HARBOR             65      CALM  /  3   N/A
CALUMET HARBOR                                1010.8R
BURNS HARBOR               80     180/  5/  8 1012.2R
MICHIGAN CITY              73      50/  2/  3   N/A
MICHIGAN CITY 6N           65 62   80/  6/  6   N/A           1
ST. JOSEPH                 69 65  120/  2/  4   N/A           0
$$

ILZ025>027-034>036-040-047-049-050-058-095>099-270300-
WEST-CENTRAL ILLINOIS

CITY           SKY/WX    TMP DP  RH WIND       PRES   REMARKS
QUINCY         CLOUDY    76  70  82 SE7       29.86F
MACOMB*        CLOUDY    75  69  81 S3        29.89F
PITTSFIELD*    CLOUDY    74  69  86 CALM      29.89R
$$

ILZ028>032-037-038-041>044-048-051>054-059>061-270300-
CENTRAL ILLINOIS

CITY           SKY/WX    TMP DP  RH WIND       PRES   REMARKS
BLOOMINGTON    CLOUDY    74  70  87 S12       29.93R
DECATUR        CLOUDY    71  64  78 S7        29.91R
PEORIA         CLOUDY    77  69  76 S7        29.89R
SPRINGFIELD    CLOUDY    73  66  78 S8        29.89S
TAYLORVILLE    NOT AVBL
$$

ILZ033-039-045-046-055>057-062-063-270300-
EAST-CENTRAL ILLINOIS

CITY           SKY/WX    TMP DP  RH WIND       PRES   REMARKS
CHAMPAIGN      CLOUDY    70  65  84 S9        29.92S
MATTOON        MOCLDY    68  63  84 SE7       29.92S
$$

ILZ079-100>102-270300-
SOUTHWEST ILLINOIS

CITY           SKY/WX    TMP DP  RH WIND       PRES   REMARKS
BELLEVILLE     CLOUDY    71  69  93 VRB2      29.90R
CAHOKIA*       CLOUDY    73  66  78 SE7       29.90R
SPARTA*        CLOUDY    70  65  85 S9        29.93S
$$

ILZ064>066-069>071-074>076-080>082-084>086-088>090-092>094-270300-
SOUTH-CENTRAL ILLINOIS

CITY           SKY/WX    TMP DP  RH WIND       PRES   REMARKS
CARBONDALE     MOCLDY    68  63  84 S7        29.95S
EFFINGHAM*     MOCLDY    69  66  90 SE7       29.96R
MT. VERNON     CLOUDY    68  61  77 S5        29.96R
SALEM*         CLOUDY    70  64  81 SE5       29.94R
$$

ILZ067-068-072-073-078-083-087-091-270300-
SOUTHEAST ILLINOIS

CITY           SKY/WX    TMP DP  RH WIND       PRES   REMARKS
LAWRENCEVILLE  CLOUDY    69  66  90 S8        29.98R
FLORA*         MOCLDY    69  65  86 SE6       29.96R
HARRISBURG*    CLOUDY    68  64  89 S6        29.98R
ROBINSON*      MOCLDY    66  64  94 SE6       29.97R
$$

ABBREVIATIONS USED IN REMARKS
   TC - TEMPERATURE IN CELSIUS
  WCI - WIND CHILL INDEX
   HX - HEAT INDEX
  VSB - VISIBILITY
$$





USA.gov is the U.S. government's official web portal to all federal, state and local government web resources and services.